MST,Max TemperatureF,Mean TemperatureF,Min TemperatureF,Max Dew PointF,MeanDew PointF,Min DewpointF,Max Humidity, Mean Humidity, Min Humidity, Max Sea Level PressureIn, Mean Sea Level PressureIn, Min Sea Level PressureIn, Max VisibilityMiles, Mean VisibilityMiles, Min VisibilityMiles, Max Wind SpeedMPH, Mean Wind SpeedMPH, Max Gust SpeedMPH,PrecipitationIn, CloudCover, Events, WindDirDegrees
2013-2-1,38,27,16,27,22,12,85,65,44,30.43,30.19,30.03,10,8,1,21,7,26,0.01,5,Snow,315
2013-2-2,36,20,4,20,10,2,91,75,59,30.60,30.52,30.33,10,10,10,8,3,8,0.00,0,,144
2013-2-3,40,22,3,17,9,2,92,65,37,30.45,30.28,30.17,10,10,9,10,2,12,0.00,0,,145
2013-2-4,39,28,16,26,20,13,74,61,47,30.13,30.04,29.95,10,10,8,15,6,21,T,6,,295
2013-2-5,44,30,15,25,19,13,84,59,33,30.06,29.93,29.76,10,10,10,16,4,24,0.00,5,,246
2013-2-6,36,23,9,27,16,4,81,61,41,30.22,30.03,29.86,10,9,2,17,4,23,T,3,Snow,296
2013-2-7,35,21,7,17,12,3,84,64,44,30.20,30.09,29.99,10,10,10,8,2,9,0.00,2,,125
2013-2-8,33,19,5,21,12,3,91,73,54,30.13,30.05,30.00,10,10,9,12,4,15,0.00,3,,349
2013-2-9,30,18,6,20,16,5,92,71,50,30.06,29.94,29.78,10,7,2,17,6,23,T,6,Snow,325
2013-2-10,27,14,0,18,12,-3,96,73,50,30.30,30.12,29.99,10,5,0,15,3,23,0.08,7,Fog-Snow,144
2013-2-11,26,10,-6,15,4,-7,91,73,55,30.35,30.26,30.00,10,9,2,8,2,10,0.00,2,,216
2013-2-12,34,17,0,23,15,-4,95,78,61,30.32,30.26,30.11,10,10,6,15,5,18,0.00,7,,332
2013-2-13,39,34,29,24,19,14,72,56,40,30.17,30.09,30.04,10,10,9,28,12,39,T,7,Snow,317
2013-2-14,34,29,24,22,18,14,75,59,43,30.42,30.31,30.18,10,9,1,22,10,31,T,7,Snow,314
2013-2-15,39,27,15,24,19,13,84,67,50,30.52,30.44,30.37,10,10,10,16,5,20,0.00,3,,346
2013-2-16,46,27,8,27,17,6,92,66,40,30.40,30.14,29.78,10,9,1,24,3,35,T,0,Snow,196
2013-2-17,31,25,19,27,20,11,92,71,49,30.11,29.89,29.75,10,7,1,21,8,26,0.01,7,Snow,309
2013-2-18,32,20,8,12,8,3,83,60,36,30.19,30.09,29.94,10,10,9,14,3,20,0.00,3,,177
2013-2-19,36,26,15,19,14,8,77,61,44,29.95,29.79,29.67,10,10,10,9,2,10,0.00,6,,179
2013-2-20,31,21,11,22,15,8,92,73,53,29.98,29.83,29.73,10,6,2,12,5,,T,7,Snow,318
2013-2-21,29,14,-1,15,6,-4,91,65,39,30.13,30.05,29.97,10,10,9,15,4,20,0.00,3,,271
2013-2-22,34,28,22,18,14,11,68,56,43,30.03,29.89,29.70,10,10,10,18,7,25,0.00,8,,244
2013-2-23,32,21,10,23,17,7,92,69,46,30.22,29.83,29.58,10,5,0,26,10,33,0.03,8,Fog-Snow,311
2013-2-24,32,13,-7,13,0,-10,100,71,42,30.42,30.25,30.11,10,6,0,14,4,18,0.00,0,Fog,168
2013-2-25,31,18,4,21,11,0,87,69,50,30.22,30.05,29.81,10,9,2,13,3,15,T,4,Snow,228
2013-2-26,31,20,9,13,9,4,84,62,39,30.35,30.25,30.11,10,10,4,18,5,23,0.00,6,,285
2013-2-27,38,19,0,13,6,-3,87,58,29,30.43,30.36,30.21,10,10,10,16,4,23,0.00,1,,280
2013-2-28,38,24,9,27,17,3,78,65,52,30.40,30.36,30.31,10,10,5,8,2,10,T,6,,334